[[{"header":{"parameterUnit":"m.s-1","parameterCategory":1,"la1":30.2992,"la2":30.254,"lo1":-89.0895,"lo2":-89.0443,"dy":0.0025,"dx":0.0025,"nx":19,"ny":19,"refTime":"2026-03-28T09:00:00:Z","depth":0,"parameterNumber":2,"parameterNumberName":"U-component_of_WINDS"},"data":[0,0,0,-8.1665,-8.1669,-8.1795,-8.1795,-8.2,-8.2002,0,0,0,0,0,0,0,0,0,0,0,-8.1655,-8.1658,-8.1665,-8.1669,-8.1795,-8.1795,-8.2,-8.2002,0,0,0,0,0,0,0,0,0,0,0,-8.1654,-8.1657,-8.166,-8.167,-8.1795,-8.1796,-8.1999,-8.1888,0,0,0,0,0,0,0,0,0,0,-8.1758,-8.1775,-8.1656,-8.166,-8.1671,-8.1795,-8.1796,-8.1882,-8.1895,-8.1962,0,-8.203,0,-8.202,-8.2019,-8.202,0,0,0,-8.1648,-8.1765,-8.1775,-8.166,-8.1672,-8.1795,-8.1732,-8.1889,-8.1904,-8.198,-8.2032,-8.2038,-8.2023,-8.2021,-8.2022,-8.248,-8.2483,0,0,-8.1641,-8.1692,-8.1765,-8.1786,-8.177,-8.1728,-8.1737,-8.1897,-8.1957,-8.2033,-8.2042,-8.2027,-8.2022,-8.2024,-8.2477,-8.2481,0,0,0,-8.1635,-8.1688,-8.1693,-8.1778,-8.1798,-8.1733,-8.1742,-8.195,-8.1947,-8.2044,-8.2029,-8.2024,-8.2027,-8.2473,-8.2478,-8.2681,0,0,0,-8.163,-8.1684,-8.1691,-8.1723,-8.1796,-8.1876,-8.1792,-8.1936,-8.1953,-8.2028,-8.2024,-8.2029,-8.247,-8.2476,-8.2668,-8.2768,0,0,0,-8.1638,-8.1685,-8.1713,-8.1726,-8.1782,-8.1872,-8.1878,-8.1939,-8.1945,-8.202,-8.203,-8.2467,-8.2475,-8.2657,-8.2749,-8.2903,0,0,0,-8.166,-8.1891,-8.1717,-8.197,-8.1782,-8.1998,-8.1876,-8.2035,-8.2124,-8.2025,-8.247,-8.2478,-8.2653,-8.2737,-8.2891,-8.304,-8.3108,0,0,-8.198,-8.1932,-8.2076,-8.1924,-8.2185,-8.1975,-8.2265,-8.2297,-8.2257,-8.2408,-8.2418,-8.2673,-8.2747,-8.29,-8.3473,-8.3528,0,0,0,-8.2195,-8.2299,-8.2357,-8.2445,-8.2478,-8.2512,-8.2496,-8.2508,-8.2634,-8.2345,-8.2769,-8.2812,-8.29,-8.2968,-8.3015,-8.3086,-8.2512,-8.2512,-8.2511,-8.2718,-8.2657,-8.2892,-8.2846,-8.2934,-8.2915,-8.298,-8.2993,-8.2903,-8.3005,-8.3048,-8.3404,-8.3487,-8.3521,-8.3596,-8.3124,-8.3125,-8.3126,-8.3126,-8.318,-8.3317,-8.3196,-8.338,-8.3314,-8.3467,-8.346,-8.3392,-8.3525,-8.3366,-8.344,-8.327,-8.3583,-8.3645,-8.3141,-8.3139,-8.3137,-8.3135,-8.3134,-8.3514,-8.3569,-8.3582,-8.3704,-8.3805,-8.3751,-8.3885,-8.3819,-8.3758,-8.3832,-8.387,-8.3866,-8.3853,-8.3856,-8.3857,-8.3858,-8.3859,-8.386,-8.3861,-8.3854,-8.3862,-8.3983,-8.404,-8.4088,-8.4144,-8.413,-8.4176,-8.421,-8.4151,-8.4151,-8.4052,-8.3626,-8.3519,-8.388,-8.3876,-8.3874,-8.3872,-8.3871,-8.434,-8.422,-8.4408,-8.4457,-8.4518,-8.4623,-8.4539,-8.4639,-8.4667,-8.4735,-8.4622,-8.4318,-8.4263,-8.4226,-8.4136,-8.4635,-8.4635,-8.4635,-8.4635,-8.462,-8.4587,-8.4764,-8.4848,-8.4922,-8.4866,-8.5079,-8.5072,-8.5045,-8.5059,-8.4978,-8.4855,-8.4821,-8.4786,-8.4737,-8.4652,-8.5271,-8.5271,-8.5272,-8.4915,-8.4886,-8.508,-8.5054,-8.5097,-8.5136,-8.5334,-8.5434,-8.5379,-8.5296,-8.5068,-8.5041,-8.4842,-8.4781,-8.469,-8.4615,-8.4458,0,0]},{"header":{"parameterUnit":"m.s-1","parameterCategory":1,"la1":30.2992,"la2":30.254,"lo1":-89.0895,"lo2":-89.0443,"dy":0.0025,"dx":0.0025,"nx":19,"ny":19,"refTime":"2026-03-28T09:00:00:Z","depth":0,"parameterNumber":3,"parameterNumberName":"V-component_of_WINDS"},"data":[0,0,0,0.8888,0.8888,0.8909,0.8909,0.8938,0.8938,0,0,0,0,0,0,0,0,0,0,0,0.8883,0.8883,0.8888,0.8888,0.8909,0.8909,0.8938,0.8938,0,0,0,0,0,0,0,0,0,0,0,0.8882,0.8883,0.8883,0.8888,0.8909,0.8909,0.8938,0.8921,0,0,0,0,0,0,0,0,0,0,0.8901,0.8897,0.8883,0.8883,0.8888,0.8909,0.8909,0.8921,0.8922,0.8929,0,0.8935,0,0.8937,0.894,0.894,0,0,0,0.8887,0.8895,0.89,0.8883,0.8889,0.8909,0.8899,0.8922,0.8924,0.8932,0.8936,0.8937,0.8938,0.894,0.8941,0.8985,0.8985,0,0,0.8886,0.8887,0.8899,0.8902,0.8898,0.8899,0.89,0.8923,0.8927,0.8936,0.8938,0.8938,0.8941,0.8941,0.8984,0.8985,0,0,0,0.8884,0.8886,0.889,0.89,0.8904,0.8899,0.8901,0.8926,0.8928,0.8938,0.8939,0.8941,0.8941,0.8984,0.8985,0.8998,0,0,0,0.8883,0.8884,0.889,0.889,0.8904,0.8915,0.8904,0.8926,0.8929,0.8939,0.8941,0.8941,0.8984,0.8984,0.8997,0.9003,0,0,0,0.8881,0.8884,0.8887,0.889,0.8899,0.8915,0.8917,0.8926,0.8929,0.894,0.8941,0.8984,0.8984,0.8996,0.9002,0.9016,0,0,0,0.8879,0.8897,0.8887,0.8909,0.8899,0.8923,0.8917,0.8935,0.8946,0.8941,0.8984,0.8985,0.8996,0.9001,0.9015,0.9029,0.9034,0,0,0.8902,0.89,0.8913,0.8905,0.893,0.8919,0.8948,0.8957,0.8957,0.8976,0.8977,0.8997,0.9002,0.9016,0.9063,0.9068,0,0,0,0.892,0.8929,0.8936,0.8947,0.8956,0.8964,0.897,0.8974,0.899,0.8967,0.9006,0.9009,0.9017,0.9023,0.9027,0.9035,0.8987,0.8987,0.8987,0.8953,0.8954,0.8976,0.898,0.8991,0.8998,0.9008,0.9014,0.9011,0.902,0.9026,0.9054,0.9062,0.9064,0.9072,0.9032,0.9032,0.9032,0.9032,0.8988,0.9002,0.8999,0.9019,0.9021,0.9038,0.9047,0.9044,0.9061,0.9049,0.9057,0.9045,0.9069,0.9076,0.9033,0.9033,0.9033,0.9033,0.9033,0.901,0.9017,0.9023,0.9041,0.9055,0.9059,0.9076,0.9076,0.9077,0.9084,0.9091,0.9091,0.9091,0.9088,0.9088,0.9088,0.9088,0.9088,0.9088,0.9031,0.9037,0.9051,0.9064,0.9072,0.9084,0.9093,0.9102,0.9112,0.9111,0.9111,0.9108,0.9071,0.9062,0.9089,0.9089,0.9089,0.9089,0.9089,0.9066,0.9059,0.9081,0.909,0.9106,0.9122,0.9123,0.9141,0.9149,0.9158,0.9154,0.9126,0.9124,0.9121,0.9114,0.9152,0.9152,0.9152,0.9152,0.9085,0.9084,0.9109,0.9123,0.9138,0.9142,0.9169,0.9177,0.9185,0.919,0.9184,0.9175,0.9172,0.9171,0.9167,0.916,0.921,0.921,0.921,0.9108,0.9109,0.9131,0.9139,0.9153,0.9165,0.9191,0.9209,0.9215,0.9213,0.9194,0.9192,0.9176,0.9171,0.9167,0.9161,0.9148,0,0]}]]